Terminal Aerodrome Forecast
Issued by NWS

Home | Current Version | Previous Version | Text Only | Print | Product List | Glossary On
Versions: 1 2 3 4 5 6 7 8 9 10 11 12 13 14 15 16 17 18 19 20 21 22 23 24 25 26 27 28 29 30 31 32 33 34 35 36 37 38 39 40 41 42 43 44 45 46 47 48 49 50
574
FTUS44 KHGX 242325
TAFLBX
TAF
KLBX 242325Z 2500/2524 VRB05KT P6SM SCT020
     FM250300 VRB03KT P6SM SCT020 BKN250
      TEMPO 2510/2513 3SM BR SCT005
     FM251300 05005KT P6SM VCSH BKN025
     FM251600 08008KT P6SM VCTS BKN040CB
     FM252200 09008KT P6SM BKN050 BKN120=

USA.gov is the U.S. government's official web portal to all federal, state and local government web resources and services.